Oconto, WI

11:21 PM CST on December 07, 2019 (GMT -0600)
Oconto Municipal

Weather History for KOCQ - October, 2019

Change the Weather History Date:

Monday, October 7, 2019

  Actual Average Record
Temperature  
Mean Temperature 52 °F -  
Max Temperature 64 °F 60 °F 69 °F (2017)
Min Temperature 40 °F 38 °F 37 °F (2013)
Degree Days  
Heating Degree Days 13    
Growing Degree Days 2 (Base 50)    
Moisture  
Dew Point 40 °F    
Average Humidity 68    
Maximum Humidity 97    
Minimum Humidity 34    
Precipitation  
Precipitation 0.00 in - - ()
Sea Level Pressure  
Sea Level Pressure 30.08 in    
Wind  
Wind Speed 7 mph (West)    
Max Wind Speed 17 mph    
Max Gust Speed 22 mph    
Visibility 10 miles    
Events      
Averages and records for this station are not official NWS values.
T = Trace of Precipitation, MM = Missing Value Source: NWS Daily Summary

Daily Weather History Graph

Daily Weather History Graph

Search for Another Location

Airport or City:

Astronomy

Oct. 07, 2019 Rise Set
Actual Time 6:56 AM CDT 6:21 PM CDT
Civil Twilight 6:27 AM CDT 6:50 PM CDT
Nautical Twilight 5:53 AM CDT 7:24 PM CDT
Astronomical Twilight 5:19 AM CDT 7:58 PM CDT
Moon 4:00 PM CDT (10/7) 12:30 AM CDT (10/7)
Length of Visible Light 12h 23m
Length of Day
11h 24m
Waxing Gibbous, 69% of the Moon is Illuminated
Oct 7
Waxing Gibbous
Oct 13
Full
Oct 21
Last Quarter
Oct 27
New
Nov 4
First Quarter

Hourly Weather History & Observations

Time (CDT) Temp. Windchill Dew Point Humidity Pressure Visibility Wind Dir Wind Speed Gust Speed Precip Events Conditions
12:15 AM 50.9 °F - 41.4 °F 70% 29.98 in 10.0 mi WSW 8.1 mph - N/A   Scattered Clouds
12:35 AM 50.9 °F - 41.4 °F 70% 29.98 in 10.0 mi WSW 8.1 mph - N/A   Clear
12:55 AM 50.9 °F - 41.4 °F 70% 29.99 in 10.0 mi WSW 6.9 mph - N/A   Clear
1:15 AM 51.3 °F - 41.4 °F 69% 30.00 in 10.0 mi West 9.2 mph - N/A   Clear
1:35 AM 50.9 °F - 41.5 °F 70% 30.00 in 10.0 mi West 10.4 mph - N/A   Clear
1:55 AM 50.0 °F - 41.5 °F 73% 30.00 in 10.0 mi West 8.1 mph - N/A   Clear
2:15 AM 48.7 °F - 41.9 °F 77% 30.00 in 10.0 mi West 6.9 mph - N/A   Clear
2:35 AM 47.3 °F - 41.2 °F 79% 30.00 in 10.0 mi West 5.8 mph - N/A   Clear
2:55 AM 45.9 °F 42.9 °F 41.0 °F 83% 29.99 in 10.0 mi West 5.8 mph - N/A   Clear
3:15 AM 46.2 °F 42.7 °F 41.4 °F 83% 30.00 in 10.0 mi WSW 6.9 mph - N/A   Clear
3:35 AM 46.0 °F 43.1 °F 41.0 °F 83% 30.01 in 10.0 mi WSW 5.8 mph - N/A   Clear
3:55 AM 45.5 °F 43.2 °F 41.0 °F 84% 30.01 in 10.0 mi WSW 4.6 mph - N/A   Clear
4:15 AM 45.5 °F 43.2 °F 41.0 °F 84% 30.01 in 10.0 mi WSW 4.6 mph - N/A   Clear
4:35 AM 45.7 °F 42.7 °F 41.0 °F 84% 30.02 in 10.0 mi WSW 5.8 mph - N/A   Clear
4:55 AM 45.9 °F 42.9 °F 41.0 °F 83% 30.02 in 10.0 mi WSW 5.8 mph - N/A   Clear
5:15 AM 45.5 °F 43.2 °F 41.0 °F 84% 30.03 in 10.0 mi WSW 4.6 mph - N/A   Scattered Clouds
5:35 AM 46.4 °F 43.5 °F 41.2 °F 82% 30.04 in 10.0 mi WSW 5.8 mph - N/A   Scattered Clouds
5:55 AM 45.7 °F 42.7 °F 41.0 °F 84% 30.04 in 10.0 mi WSW 5.8 mph - N/A   Scattered Clouds
6:15 AM 45.5 °F 42.5 °F 41.0 °F 84% 30.04 in 10.0 mi WSW 5.8 mph - N/A   Scattered Clouds
6:35 AM 45.5 °F 41.8 °F 41.0 °F 84% 30.04 in 10.0 mi WSW 6.9 mph - N/A   Clear
6:55 AM 44.8 °F 42.4 °F 40.3 °F 84% 30.05 in 10.0 mi West 4.6 mph - N/A   Clear
7:15 AM 43.9 °F 41.3 °F 40.3 °F 87% 30.05 in 10.0 mi West 4.6 mph - N/A   Clear
7:35 AM 45.5 °F 42.5 °F 41.4 °F 85% 30.06 in 10.0 mi West 5.8 mph - N/A   Clear
7:55 AM 47.7 °F - 42.1 °F 81% 30.07 in 10.0 mi West 8.1 mph - N/A   Clear
8:35 AM 50.9 °F - 43.0 °F 74% 30.07 in 10.0 mi West 11.5 mph 16.1 mph N/A   Clear
9:15 AM 53.6 °F - 43.3 °F 68% 30.09 in 10.0 mi West 10.4 mph - N/A   Clear
9:35 AM 54.7 °F - 43.3 °F 66% 30.09 in 10.0 mi West 10.4 mph 16.1 mph N/A   Clear
9:55 AM 55.4 °F - 43.0 °F 63% 30.09 in 10.0 mi West 8.1 mph - N/A   Clear
10:15 AM 56.8 °F - 43.2 °F 60% 30.10 in 10.0 mi West 11.5 mph - N/A   Clear
10:35 AM 57.4 °F - 42.4 °F 57% 30.10 in 10.0 mi WNW 10.4 mph - N/A   Clear
10:55 AM 57.9 °F - 42.8 °F 57% 30.10 in 10.0 mi West 8.1 mph 16.1 mph N/A   Clear
11:15 AM 59.5 °F - 42.6 °F 54% 30.10 in 10.0 mi West 12.7 mph 17.3 mph N/A   Clear
11:35 AM 60.4 °F - 41.5 °F 50% 30.10 in 10.0 mi WNW 4.6 mph - N/A   Clear
11:55 AM 60.6 °F - 38.5 °F 44% 30.10 in 10.0 mi WNW 11.5 mph 17.3 mph N/A   Clear
12:15 PM 60.8 °F - 38.3 °F 43% 30.11 in 10.0 mi WNW 9.2 mph 17.3 mph N/A   Scattered Clouds
12:35 PM 61.7 °F - 39.2 °F 43% 30.10 in 10.0 mi WNW 10.4 mph 19.6 mph N/A   Scattered Clouds
12:55 PM 61.7 °F - 38.1 °F 42% 30.10 in 10.0 mi NW 11.5 mph 16.1 mph N/A   Clear
1:15 PM 62.4 °F - 36.3 °F 38% 30.09 in 10.0 mi WNW 11.5 mph - N/A   Clear
1:35 PM 62.8 °F - 34.7 °F 35% 30.09 in 10.0 mi West 13.8 mph 21.9 mph N/A   Clear
1:55 PM 63.0 °F - 36.7 °F 38% 30.08 in 10.0 mi West 17.3 mph 21.9 mph N/A   Clear
2:15 PM 63.3 °F - 37.0 °F 38% 30.09 in 10.0 mi West 11.5 mph 18.4 mph N/A   Clear
2:35 PM 63.1 °F - 36.7 °F 37% 30.09 in 10.0 mi West 12.7 mph 17.3 mph N/A   Clear
2:55 PM 63.7 °F - 37.2 °F 38% 30.08 in 10.0 mi WNW 6.9 mph - N/A   Clear
3:15 PM 64.2 °F - 36.7 °F 36% 30.09 in 10.0 mi WNW 9.2 mph 16.1 mph N/A   Clear
3:35 PM 64.0 °F - 35.4 °F 35% 30.09 in 10.0 mi West 11.5 mph 18.4 mph N/A   Clear
3:55 PM 64.0 °F - 35.8 °F 35% 30.10 in 10.0 mi West 9.2 mph - N/A   Clear
4:15 PM 63.9 °F - 35.8 °F 35% 30.10 in 10.0 mi WNW 5.8 mph - N/A   Clear
4:35 PM 63.7 °F - 35.1 °F 34% 30.10 in 10.0 mi WNW 6.9 mph - N/A   Clear
4:55 PM 63.3 °F - 36.1 °F 36% 30.10 in 10.0 mi WNW 5.8 mph - N/A   Clear
5:15 PM 62.6 °F - 37.4 °F 39% 30.11 in 10.0 mi West 5.8 mph - N/A   Clear
5:35 PM 61.2 °F - 38.8 °F 44% 30.11 in 10.0 mi West 3.5 mph - N/A   Clear
5:55 PM 59.4 °F - 38.5 °F 46% 30.11 in 10.0 mi WSW 3.5 mph - N/A   Clear
6:15 PM 55.6 °F - 40.3 °F 56% 30.11 in 10.0 mi Calm Calm - N/A   Clear
6:35 PM 52.2 °F - 43.0 °F 71% 30.12 in 10.0 mi Calm Calm - N/A   Clear
6:55 PM 49.6 °F - 43.7 °F 80% 30.12 in 10.0 mi Calm Calm - N/A   Clear
7:15 PM 48.2 °F - 43.2 °F 83% 30.12 in 10.0 mi Calm Calm - N/A   Clear
7:35 PM 46.8 °F - 43.0 °F 87% 30.13 in 10.0 mi Calm Calm - N/A   Clear
7:55 PM 45.9 °F - 42.8 °F 89% 30.13 in 10.0 mi Calm Calm - N/A   Clear
8:15 PM 45.0 °F - 42.1 °F 90% 30.14 in 10.0 mi Calm Calm - N/A   Clear
8:35 PM 44.4 °F - 41.9 °F 91% 30.14 in 10.0 mi Calm Calm - N/A   Clear
8:55 PM 44.4 °F - 42.1 °F 91% 30.15 in 10.0 mi Calm Calm - N/A   Clear
9:15 PM 43.7 °F - 41.4 °F 91% 30.15 in 10.0 mi Calm Calm - N/A   Clear
9:35 PM 42.1 °F - 40.3 °F 93% 30.16 in 10.0 mi Calm Calm - N/A   Clear
9:55 PM 42.6 °F - 40.5 °F 92% 30.16 in 10.0 mi Calm Calm - N/A   Clear
10:15 PM 42.1 °F - 41.0 °F 96% 30.16 in 10.0 mi Calm Calm - N/A   Clear
10:35 PM 40.1 °F - 39.0 °F 96% 30.17 in 10.0 mi Calm Calm - N/A   Clear
10:55 PM 40.3 °F - 39.2 °F 96% 30.17 in 10.0 mi Calm Calm - N/A   Clear
11:15 PM 40.6 °F - 39.4 °F 95% 30.17 in 10.0 mi Calm Calm - N/A   Clear
11:35 PM 41.0 °F - 40.1 °F 97% 30.17 in 10.0 mi Calm Calm - N/A   Clear
11:55 PM 40.5 °F - 39.6 °F 97% 30.17 in 10.0 mi Calm Calm - N/A   Clear